Torna al catalogo

STAR ONE C1

AttivoComunicazioniGEO
NORAD 32293·PAYLOAD·🇧🇷 Brazil

Lanciato Nov 14, 2007 da Guiana Space Centre

Loading…

TLE

AggiornatoSource: Space-Track

Epoca: Sep 14, 2026, 22:10 UTC

1 32293U 07056A   26257.92373409 -.00000240  00000-0  00000-0 0  9993
2 32293   4.9852  74.6897 0011702 197.6554  15.0138  0.99067510 16279

Traccia STAR ONE C1 in tempo reale con AllMySat

Download on the App Store